This is the latest recevied weather packets stored in our database for station/object N6SPP. If no packets are shown the sender has not sent any weather packets the latest 1 day(s).
| Time | Temp. | Humidity | Pressure | Rain* | Wind** | Luminosity | Snow |
|---|---|---|---|---|---|---|---|
| 1778025920 | 17.78° C | 69% | 1017.2 hPa | 0 mm | 1.34 m/s, 170° | 242 W/m² | - |
| 1778025617 | 18.33° C | 69% | 1017.3 hPa | 0 mm | 1.34 m/s, 153° | 230 W/m² | - |
| 1778025315 | 17.78° C | 69% | 1017.3 hPa | 0 mm | 0.89 m/s, 203° | 291 W/m² | - |
| 1778025011 | 17.78° C | 70% | 1017.3 hPa | 0 mm | 1.34 m/s, 229° | 254 W/m² | - |
| 1778024708 | 18.33° C | 69% | 1017.2 hPa | 0 mm | 1.79 m/s, 239° | 253 W/m² | - |
| 1778024405 | 17.78° C | 70% | 1017.1 hPa | 0 mm | 1.34 m/s, 189° | 254 W/m² | - |
| 1778024102 | 17.78° C | 71% | 1017.3 hPa | 0 mm | 2.68 m/s, 103° | 327 W/m² | - |
| 1778023800 | 17.22° C | 72% | 1017.2 hPa | 0 mm | 1.79 m/s, 206° | 285 W/m² | - |
| 1778023498 | 17.22° C | 72% | 1017.3 hPa | 0 mm | 4.02 m/s, 165° | 204 W/m² | - |
| 1778023194 | 17.22° C | 72% | 1017.3 hPa | 0 mm | 1.79 m/s, 223° | 193 W/m² | - |
| 1778022892 | 17.78° C | 72% | 1017.5 hPa | 0 mm | 0.89 m/s, 281° | 187 W/m² | - |
| 1778022590 | 17.78° C | 72% | 1017.4 hPa | 0 mm | 0.89 m/s, 306° | 192 W/m² | - |
| 1778022287 | 17.78° C | 72% | 1017.3 hPa | 0 mm | 1.79 m/s, 196° | 234 W/m² | - |
| 1778021983 | 17.22° C | 73% | 1017.4 hPa | 0 mm | 0.89 m/s, 215° | 234 W/m² | - |
| 1778021681 | 17.22° C | 72% | 1017.3 hPa | 0 mm | 1.34 m/s, 256° | 166 W/m² | - |
| 1778021377 | 17.22° C | 73% | 1017.4 hPa | 0 mm | 0 m/s | 138 W/m² | - |
| 1778021074 | 17.22° C | 72% | 1017.4 hPa | 0 mm | 1.34 m/s, 144° | 146 W/m² | - |
| 1778020771 | 17.22° C | 72% | 1017.4 hPa | 0 mm | 0.89 m/s, 137° | 156 W/m² | - |
| 1778020467 | 17.78° C | 71% | 1017.4 hPa | 0 mm | 0.89 m/s, 198° | 170 W/m² | - |
| 1778020164 | 17.78° C | 70% | 1017.4 hPa | 0 mm | 0.89 m/s, 202° | 202 W/m² | - |
| 1778019860 | 17.78° C | 71% | 1017.6 hPa | 0 mm | 0 m/s | 271 W/m² | - |
| 1778019556 | 17.78° C | 71% | 1017.5 hPa | 0 mm | 0.45 m/s, 202° | 288 W/m² | - |
| 1778019254 | 17.78° C | 71% | 1017.4 hPa | 0 mm | 1.79 m/s, 207° | 227 W/m² | - |
| 1778018951 | 17.78° C | 71% | 1017.5 hPa | 0 mm | 1.34 m/s, 199° | 231 W/m² | - |
| 1778018648 | 17.78° C | 70% | 1017.6 hPa | 0 mm | 1.79 m/s, 288° | 321 W/m² | - |
* Rain latest hour (hover to see other rain measurements)
** Current wind speed in m/s (hover to see current wind gust speed)